Tracking 17138 objects as of 8-July-2015
HD Live streaming from Space Station

SCOUT B-1 R/B

Track SCOUT B-1 R/B now!
10-day predictions
SCOUT B-1 R/B is classified as:


NORAD ID: 5438
Int'l Code: 1971-071B
Perigee: 632.8 km
Apogee: 786.9 km
Inclination: 50.1 °
Period: 98.8 minutes
Semi major axis: 7080 km
RCS: 0.747 m2 (medium)
Launch date: August 16, 1971
Source: United States (US)

Note: This is a ROCKET BODY
Your satellite tracking list
Your tracking list is empty





NASA's NSSDC Master Catalog

Two Line Element Set (TLE):
1 05438U 71071B   15187.83483526  .00000570  00000-0  15779-3 0  9991
2 05438 050.1480 340.1374 0108842 139.5927 221.3151 14.57045275315982

Source of the keplerian elements: AFSPC

N2YO: 307